Location: Eschentzwiller
(47.7125°N, 7.3981°E)
Time: 01:12:11
(UTC+00:00)

Cosmos 1503 Rocket - Pass Details

Date: 27 October 2020
Orbit: 752 x 791 km, 74.0° (Epoch: 26 November)

Event Time Altitude Azimuth Distance (km) Brightness Sun altitude
Rises 18:26:55 0° 336° (NNW) 3,228 7.6 -21.9°
Reaches altitude 10° 18:29:17 10° 336° (NNW) 2,303 6.8 -22.3°
Maximum altitude 18:34:31 83° 250° (WSW) 779 4.0 -23.1°
Enters shadow 18:37:11 30° 165° (SSE) 1,354 5.0 -23.6°
